Location: Peach Mountain Observatory
(42.3967°N, 83.9367°W)
Time: 08:45:54
(UTC-05:00)

Transit 4A - All Passes

Search period start: 28 January 2020 00:00
Search period end: 07 February 2020 00:00
Orbit: 872 x 973 km, 66.8° (Epoch: 28 January)

Date Brightness Start Highest point End Pass type
(mag) Time Alt. Az. Time Alt. Az. Time Alt. Az.
28 Jan - 04:57:38 10° SSE 05:01:47 20° ESE 05:05:53 10° ENE visible
28 Jan - 06:41:33 10° SW 06:47:34 69° WNW 06:53:27 10° NNE visible
28 Jan - 08:31:33 10° WNW 08:35:01 16° NW 08:38:27 10° N daylight
28 Jan - 13:57:57 10° NNW 14:02:52 27° NE 14:07:48 10° ESE daylight
28 Jan - 15:43:51 10° NW 15:49:32 56° WSW 15:55:16 10° SSE daylight
29 Jan - 05:05:46 10° SSE 05:10:53 29° ESE 05:15:54 10° NE visible
29 Jan - 06:51:11 10° SW 06:56:59 48° NW 07:02:41 10° NNE visible
29 Jan - 08:42:45 10° NW 08:44:51 12° NNW 08:46:56 10° N daylight
29 Jan - 14:07:01 10° NNW 14:12:25 38° NE 14:17:50 10° ESE daylight
29 Jan - 15:53:26 10° NW 15:58:44 37° WSW 16:04:05 10° S daylight
30 Jan - 05:14:22 10° S 05:20:02 44° ESE 05:25:36 10° NE visible
30 Jan - 07:01:05 10° WSW 07:06:29 34° NW 07:11:49 10° NNE visible
30 Jan - 12:31:39 10° N 12:34:10 13° NNE 12:36:41 10° ENE daylight
30 Jan - 14:16:11 10° NNW 14:21:54 54° NE 14:27:38 10° SE daylight
30 Jan - 16:03:14 10° NW 16:07:52 25° WSW 16:12:31 10° SSW daylight
31 Jan - 05:23:18 10° SSW 05:29:16 66° ESE 05:35:07 10° NE visible
31 Jan - 07:11:14 10° W 07:16:04 25° NW 07:20:51 10° N visible
31 Jan - 12:40:17 10° N 12:43:58 17° NE 12:47:40 10° ENE daylight
31 Jan - 14:25:26 10° NNW 14:31:18 78° ENE 14:37:11 10° SE daylight
31 Jan - 16:13:29 10° WNW 16:16:55 16° WSW 16:20:22 10° SW daylight
01 Feb - 03:49:52 10° SE 03:53:00 15° ESE 03:56:07 10° ENE visible
01 Feb - 05:32:31 10° SSW 05:38:34 86° WNW 05:44:29 10° NNE visible
01 Feb - 07:21:41 10° W 07:25:45 19° NW 07:29:48 10° N visible
01 Feb - 12:49:10 10° N 12:53:41 23° NE 12:58:13 10° E daylight
01 Feb - 14:34:47 10° NW 14:40:36 73° WSW 14:46:28 10° SSE daylight
02 Feb - 03:57:30 10° SSE 04:02:03 23° ESE 04:06:32 10° ENE visible
02 Feb - 05:42:00 10° SW 05:47:56 60° NW 05:53:46 10° NNE visible
02 Feb - 07:32:31 10° WNW 07:35:32 14° NW 07:38:32 10° N daylight
02 Feb - 12:58:11 10° NNW 13:03:18 31° NE 13:08:26 10° ESE daylight
02 Feb - 14:44:15 10° NW 14:49:51 49° WSW 14:55:29 10° S daylight
03 Feb - 04:05:50 10° S 04:11:09 34° ESE 04:16:24 10° NE visible
03 Feb - 05:51:43 10° WSW 05:57:23 42° NW 06:02:57 10° NNE visible
03 Feb - 07:44:09 10° NW 07:45:24 11° NNW 07:46:39 10° NNW daylight
03 Feb - 11:23:33 10° NNE 11:24:50 11° NNE 11:26:07 10° NE daylight
03 Feb - 13:07:18 10° NNW 13:12:50 43° NE 13:18:24 10° ESE daylight
03 Feb - 14:53:55 10° NW 14:59:01 32° WSW 15:04:10 10° S daylight
04 Feb - 04:14:33 10° S 04:20:20 51° ESE 04:26:02 10° NE visible
04 Feb - 06:01:43 10° WSW 06:06:55 30° NW 06:12:03 10° NNE visible
04 Feb - 11:31:42 10° N 11:34:42 14° NE 11:37:42 10° ENE daylight
04 Feb - 13:16:29 10° NNW 13:22:16 61° NE 13:28:06 10° SE daylight
04 Feb - 15:03:50 10° WNW 15:08:07 21° WSW 15:12:26 10° SSW daylight
05 Feb - 02:43:09 10° ESE 02:44:15 10° E 02:45:21 10° E visible
05 Feb - 04:23:36 10° SSW 04:29:36 75° ESE 04:35:29 10° NNE visible
05 Feb - 06:11:58 10° W 06:16:32 22° NW 06:21:05 10° N visible
05 Feb - 11:40:27 10° N 11:44:28 19° NE 11:48:30 10° E daylight
05 Feb - 13:25:46 10° NNW 13:31:38 88° ENE 13:37:33 10° SSE daylight
05 Feb - 15:14:22 10° WNW 15:17:09 14° WSW 15:19:56 10° SW daylight
06 Feb - 02:49:31 10° SE 02:53:15 17° ESE 02:56:56 10° ENE visible
06 Feb - 04:32:54 10° SW 04:38:55 76° WNW 04:44:50 10° NNE visible
06 Feb - 06:22:33 10° WNW 06:26:16 17° NW 06:29:57 10° N visible
06 Feb - 11:49:23 10° N 11:54:09 25° NE 11:58:56 10° E daylight
06 Feb - 13:35:10 10° NW 13:40:55 63° WSW 13:46:44 10° SSE daylight
